{"data":{"norad_id":52663,"intl_designator":"2022-053H","name":"STARLINK-4037","alt_names":[],"object_type":"PAYLOAD","status":"ACTIVE","operator":null,"country":"US","launch_date":"2022-05-18","launch_site_code":"AFETR","launch_vehicle":null,"mission":null,"orbit_class":"UNKNOWN","rcs_meters":null,"size_class":null,"mass_kg":null,"dimensions":null,"purposes":["comms"],"wikipedia_slug":null,"has_3d_model":false,"image_url":null,"decayed_at":null,"tle_current":{"epoch":"2026-09-20T00:02:05.415648Z","epoch_age_seconds":109530,"freshness":"FRESH","line1":"1 52663U 22053H   26263.00145157 -.00001294  00000+0 -26198-4 0  9993","line2":"2 52663  53.1606 358.1577 0001104  75.4034 284.7092 15.35398753240423","mean_motion":15.35398753,"eccentricity":0.0001104,"inclination_deg":53.1606,"raan_deg":358.1577,"arg_perigee_deg":75.4034,"mean_anomaly_deg":284.7092,"bstar":-2.6198e-5,"rev_number":24042,"period_min":93.786711574853,"perigee_km":458.98144385075,"apogee_km":460.49124628535,"semimajor_km":6837.873345068,"source":"CELESTRAK","updated_at":"2026-09-20T09:00:40.101251Z"}}}